Location: Sevilla
(37.3933°N, 5.9839°W)
Time: 13:30:08
(UTC+02:00)

BlueWalker 3 - Visible Passes

Search period start: 21 May 2024 00:00
Search period end: 31 May 2024 00:00
Orbit: 482 x 494 km, 53.2° (Epoch: 20 May)

Date Brightness Start Highest point End Pass type
(mag) Time Alt. Az. Time Alt. Az. Time Alt. Az.
27 May 4.5 06:18:26 10° SSE 06:20:13 13° SE 06:22:01 10° E visible
28 May 4.5 05:53:21 10° SSE 05:54:50 12° SE 05:56:19 10° E visible
29 May 4.5 05:28:20 10° SE 05:29:26 11° ESE 05:30:30 10° ESE visible
30 May 4.5 05:03:45 10° SE 05:04:00 10° ESE 05:04:14 10° ESE visible
